Regional Weather Roundup
Issued by NWS

Home | Current Version | Previous Version | Graphics & Text | Print | Product List | Glossary On
Versions: 1 2 3 4 5 6 7 8 9 10 11 12 13 14 15 16 17 18 19 20 21 22 23 24 25 26 27 28 29 30 31 32 33 34 35 36 37 38 39 40 41 42 43 44 45 46 47 48 49 50
000
ASUS43 KLOT 261600
RWRIL

ILLINOIS REGIONAL WEATHER ROUNDUP
NATIONAL WEATHER SERVICE CHICAGO/ROMEOVILLE IL
1100 AM CDT SAT JUL 26 2014

NOTE: "FAIR" INDICATES FEW OR NO CLOUDS BELOW 12,000 FEET WITH NO
SIGNIFICANT WEATHER AND/OR OBSTRUCTIONS TO VISIBILITY.

* THESE STATIONS ARE NOT UNDER NWS QUALITY CONTROL. THEY ALSO MAY NOT
  REPORT WEATHER SUCH AS PRECIPITATION OR FOG.

ILZ001-002-007-009-015-016-024-261700-
NORTHWEST ILLINOIS

CITY           SKY/WX    TMP DP  RH WIND       PRES   REMARKS
MOLINE         PTSUNNY   75  66  73 NE5       29.83R
STERLING*      MOSUNNY   77  68  73 NE12      29.84F
$$

ILZ003-004-008-010-011-017-018-261700-
NORTH CENTRAL ILLINOIS

CITY           SKY/WX    TMP DP  RH WIND       PRES   REMARKS
ROCKFORD       PTSUNNY   78  66  66 N13       29.89R HX  80
$$

ILZ005-006-012>014-019>023-261700-
NORTHEAST ILLINOIS

CITY           SKY/WX    TMP DP  RH WIND       PRES   REMARKS
CHICAGO-OHARE  PTSUNNY   77  63  61 CALM      29.84R
CHICAGO-MIDWAY CLOUDY    77  67  71 S3        29.85R
AURORA         CLOUDY    76  66  71 SW6       29.86R
WAUKEGAN       MOSUNNY   76  63  64 VRB5      29.85R
DUPAGE AIRPORT PTSUNNY   77  66  68 W6        29.85R
WHEELING       MOSUNNY   79  65  62 SW6       29.85S HX  81
NORTHERLY ISL    N/A     74  63  68 W7          N/A
$$

LMZ740>746-261700-
SOUTHERN LAKE MICHIGAN

STATION/POSITION SKY/WX   TEMP    WIND        PRES    VSBY  WAVE
                          AIR SEA DIR/SP/G                  HT/PER
                          (F)     (DEG/KT/KT) (MB)    (MI)  (FT/S)
SOUTHERN BUOY              64 61  150/  8/  8 1010.8F         1
WAUKEGAN HARBOR            69     100/  5/  6   N/A
HARRISON CRIB              69     130/  7/  8   N/A
BURNHAM HARBOR             74     220/  5/  7   N/A
CALUMET HARBOR             72     210/  6/  8 1009.6S
MICHIGAN CITY              71     200/  6/  8   N/A
MICHIGAN CITY 6N           72 69     CALM       N/A           1
ST. JOSEPH                 69 66  140/  4/  4   N/A           1
$$

ILZ025>027-034>036-040-047-049-050-058-095>099-261700-
WEST-CENTRAL ILLINOIS

CITY           SKY/WX    TMP DP  RH WIND       PRES   REMARKS
QUINCY         PTSUNNY   84  74  71 SW9       29.83S HX  91
$$

ILZ028>032-037-038-041>044-048-051>054-059>061-261700-
CENTRAL ILLINOIS

CITY           SKY/WX    TMP DP  RH WIND       PRES   REMARKS
DECATUR        PTSUNNY   81  72  74 SW14      29.87R HX  85
PEORIA         CLOUDY    79  70  74 SE5       29.82F HX  82
SPRINGFIELD    PTSUNNY   84  74  71 SW9       29.85S HX  91
TAYLORVILLE    NOT AVBL
$$

ILZ033-039-045-046-055>057-062-063-261700-
EAST-CENTRAL ILLINOIS

CITY           SKY/WX    TMP DP  RH WIND       PRES   REMARKS
CHAMPAIGN      CLOUDY    79  73  82 SW10G20   29.88R HX  82
MATTOON        MOSUNNY   81  72  74 S10       29.88F HX  85
$$

ILZ079-100>102-261700-
SOUTHWEST ILLINOIS

CITY           SKY/WX    TMP DP  RH WIND       PRES   REMARKS
ALTON          SUNNY     84  77  79 SW9       29.88F HX  94
BELLEVILLE     SUNNY     85  76  74 VRB2      29.88F HX  93
CAHOKIA*       MOSUNNY   86  73  65 VRB6      29.88F HX  93
$$

ILZ064>066-069>071-074>076-080>082-084>086-088>090-092>094-261700-
SOUTH-CENTRAL ILLINOIS

CITY           SKY/WX    TMP DP  RH WIND       PRES   REMARKS
CARBONDALE     MOSUNNY   84  71  65 SW15      29.93F HX  89
MT. VERNON     PTSUNNY   82  72  69 SW14G20   29.93S HX  87
$$

ILZ067-068-072-073-078-083-087-091-261700-
SOUTHEAST ILLINOIS

CITY           SKY/WX    TMP DP  RH WIND       PRES   REMARKS
LAWRENCEVILLE  SUNNY     81  72  74 SW13      29.92S HX  85
$$

ABBREVIATIONS USED IN REMARKS
   TC - TEMPERATURE IN CELSIUS
  WCI - WIND CHILL INDEX
   HX - HEAT INDEX
  VSB - VISIBILITY
$$



USA.gov is the U.S. government's official web portal to all federal, state and local government web resources and services.